TimeCDT,TemperatureF,Dew PointF,Humidity,Sea Level PressureIn,VisibilityMPH,Wind Direction,Wind SpeedMPH,Gust SpeedMPH,PrecipitationIn,Events,Conditions,WindDirDegrees,DateUTC
12:55 AM,51.4,48.6,90,29.91,5.0,South,9.2,-,N/A,Thunderstorm,Overcast,170,2012-10-13 05:55:00
1:15 AM,51.3,49.5,94,29.89,5.0,South,6.9,-,N/A,Rain-Thunderstorm,Light Thunderstorms and Rain,170,2012-10-13 06:15:00
1:55 AM,50.9,50.4,98,29.89,3.0,SSW,8.1,-,0.31,Rain-Thunderstorm,Light Thunderstorms and Rain,200,2012-10-13 06:55:00
2:15 AM,51.3,51.3,100,29.90,3.0,SW,8.1,-,0.02,Rain-Thunderstorm,Light Thunderstorms and Rain,220,2012-10-13 07:15:00
2:35 AM,51.4,51.4,100,29.89,3.0,South,8.1,-,0.03,Rain-Thunderstorm,Light Thunderstorms and Rain,190,2012-10-13 07:35:00
2:55 AM,51.4,51.4,100,29.89,2.5,South,10.4,-,0.21,Rain-Thunderstorm,Heavy Thunderstorms and Rain,180,2012-10-13 07:55:00
3:15 AM,52.0,52.0,100,29.87,7.0,South,15.0,-,0.06,Rain-Thunderstorm,Thunderstorms and Rain,170,2012-10-13 08:15:00
3:35 AM,52.3,52.3,100,29.83,5.0,SSE,12.7,-,0.14,Rain-Thunderstorm,Thunderstorms and Rain,150,2012-10-13 08:35:00
3:55 AM,53.6,53.6,100,29.81,10.0,SSE,16.1,-,0.17,Rain-Thunderstorm,Light Thunderstorms and Rain,160,2012-10-13 08:55:00
4:15 AM,53.2,53.2,100,29.78,10.0,SSE,15.0,19.6,N/A,,Mostly Cloudy,150,2012-10-13 09:15:00
4:35 AM,53.6,53.6,100,29.80,10.0,South,17.3,-,N/A,,Overcast,170,2012-10-13 09:35:00
4:55 AM,53.8,53.8,100,29.80,10.0,South,16.1,25.3,N/A,,Mostly Cloudy,170,2012-10-13 09:55:00
5:15 AM,53.8,53.8,100,29.81,10.0,SW,5.8,-,N/A,,Mostly Cloudy,220,2012-10-13 10:15:00
5:55 AM,53.4,53.4,100,29.79,10.0,SSW,8.1,-,N/A,,Mostly Cloudy,210,2012-10-13 10:55:00
6:15 AM,53.8,53.8,100,29.78,10.0,SSW,10.4,-,N/A,,Scattered Clouds,210,2012-10-13 11:15:00
6:35 AM,54.3,54.3,100,29.78,10.0,SSW,10.4,-,N/A,,Scattered Clouds,210,2012-10-13 11:35:00
6:55 AM,54.0,54.0,100,29.79,10.0,SW,11.5,18.4,N/A,,Mostly Cloudy,220,2012-10-13 11:55:00
7:15 AM,53.8,53.8,100,29.79,10.0,SW,12.7,-,N/A,,Overcast,220,2012-10-13 12:15:00
7:35 AM,53.6,53.6,100,29.78,10.0,SSW,12.7,-,N/A,,Scattered Clouds,210,2012-10-13 12:35:00
7:55 AM,54.3,54.3,100,29.77,10.0,SW,13.8,-,0.01,,Clear,220,2012-10-13 12:55:00
8:15 AM,55.6,55.6,100,29.77,10.0,SW,12.7,-,N/A,,Clear,230,2012-10-13 13:15:00
8:55 AM,56.7,56.5,99,29.75,10.0,WSW,10.4,-,N/A,,Clear,240,2012-10-13 13:55:00
9:35 AM,57.6,57.0,98,29.75,10.0,SW,10.4,16.1,N/A,,Clear,230,2012-10-13 14:35:00
9:55 AM,59.0,57.9,96,29.75,10.0,SW,9.2,-,N/A,,Clear,230,2012-10-13 14:55:00
10:15 AM,60.6,58.8,94,29.74,10.0,WSW,11.5,16.1,N/A,,Scattered Clouds,240,2012-10-13 15:15:00
10:35 AM,61.5,59.2,92,29.74,10.0,SW,13.8,-,N/A,,Overcast,230,2012-10-13 15:35:00
10:55 AM,62.1,59.2,90,29.74,10.0,SW,16.1,20.7,N/A,,Overcast,230,2012-10-13 15:55:00
11:15 AM,63.1,59.5,88,29.73,10.0,SW,18.4,21.9,N/A,,Overcast,220,2012-10-13 16:15:00
11:35 AM,64.4,59.0,83,29.72,10.0,WSW,16.1,-,N/A,,Mostly Cloudy,240,2012-10-13 16:35:00
11:55 AM,65.3,59.0,80,29.72,10.0,SW,12.7,-,N/A,,Mostly Cloudy,220,2012-10-13 16:55:00
12:35 PM,67.5,58.5,73,29.72,10.0,SSW,15.0,-,N/A,,Scattered Clouds,210,2012-10-13 17:35:00
12:55 PM,68.4,58.3,70,29.71,10.0,SSW,16.1,20.7,N/A,,Scattered Clouds,200,2012-10-13 17:55:00
1:15 PM,69.8,59.2,69,29.70,10.0,SSW,12.7,-,N/A,,Scattered Clouds,210,2012-10-13 18:15:00
1:35 PM,70.9,59.0,66,29.69,10.0,SSW,12.7,-,N/A,,Clear,200,2012-10-13 18:35:00
1:55 PM,72.1,58.6,62,29.68,10.0,SSW,13.8,19.6,N/A,,Clear,200,2012-10-13 18:55:00
2:15 PM,73.2,58.8,61,29.68,10.0,SSW,18.4,23.0,N/A,,Clear,200,2012-10-13 19:15:00
2:35 PM,72.9,57.4,58,29.68,10.0,SSW,17.3,25.3,N/A,,Scattered Clouds,200,2012-10-13 19:35:00
2:55 PM,73.4,57.0,56,29.67,10.0,SSW,17.3,25.3,N/A,,Clear,210,2012-10-13 19:55:00
3:15 PM,73.8,57.0,56,29.66,10.0,SW,16.1,-,N/A,,Clear,220,2012-10-13 20:15:00
3:35 PM,74.7,57.4,55,29.66,10.0,SW,12.7,20.7,N/A,,Clear,220,2012-10-13 20:35:00
3:55 PM,74.7,58.5,57,29.65,10.0,South,9.2,-,N/A,,Clear,180,2012-10-13 20:55:00
4:15 PM,75.4,57.9,54,29.65,10.0,South,11.5,-,N/A,,Clear,190,2012-10-13 21:15:00
4:35 PM,74.5,58.1,57,29.65,10.0,South,10.4,-,N/A,,Clear,190,2012-10-13 21:35:00
4:55 PM,73.9,58.3,58,29.64,10.0,South,12.7,-,N/A,,Clear,170,2012-10-13 21:55:00
5:15 PM,73.6,57.0,56,29.63,10.0,SSW,12.7,16.1,N/A,,Clear,210,2012-10-13 22:15:00
5:35 PM,73.0,57.2,57,29.63,10.0,SSW,9.2,-,N/A,,Clear,210,2012-10-13 22:35:00
5:55 PM,73.0,57.6,58,29.62,10.0,SSW,5.8,-,N/A,,Clear,210,2012-10-13 22:55:00
6:15 PM,72.3,57.6,60,29.61,10.0,SSW,4.6,-,N/A,,Clear,200,2012-10-13 23:15:00
6:35 PM,71.8,57.9,62,29.60,10.0,SSE,3.5,-,N/A,,Clear,160,2012-10-13 23:35:00
7:35 PM,63.5,56.5,78,29.62,10.0,NE,8.1,-,N/A,,Clear,50,2012-10-14 00:35:00
7:55 PM,62.4,56.3,80,29.62,10.0,NE,5.8,-,N/A,,Clear,50,2012-10-14 00:55:00
8:15 PM,60.6,55.4,83,29.62,10.0,NE,4.6,-,N/A,,Clear,40,2012-10-14 01:15:00
8:35 PM,58.1,54.0,86,29.63,10.0,North,4.6,-,N/A,,Scattered Clouds,10,2012-10-14 01:35:00
8:55 PM,59.0,55.2,87,29.64,10.0,North,4.6,-,N/A,,Mostly Cloudy,10,2012-10-14 01:55:00
9:15 PM,59.0,55.4,88,29.64,10.0,NNE,5.8,-,N/A,,Scattered Clouds,30,2012-10-14 02:15:00
9:35 PM,57.6,54.5,90,29.65,10.0,East,5.8,-,N/A,,Clear,80,2012-10-14 02:35:00
9:55 PM,55.6,54.3,96,29.66,10.0,Calm,Calm,-,N/A,,Clear,0,2012-10-14 02:55:00
10:15 PM,61.3,59.0,92,29.68,10.0,NNW,11.5,18.4,N/A,,Mostly Cloudy,340,2012-10-14 03:15:00
11:15 PM,59.5,46.9,63,29.68,10.0,North,13.8,-,N/A,,Overcast,350,2012-10-14 04:15:00
11:35 PM,58.6,45.7,62,29.67,10.0,North,19.6,-,N/A,,Mostly Cloudy,350,2012-10-14 04:35:00